#�ϑ�����,���ϕ���,���ϕ���,�ő啗��,�ő啗����������,�ő�u�ԕ���,�ő�u�ԕ�����������
#(�N����),(m/s)   ,(16����),(m/s)   ,(16����)        ,(m/s)       ,(16����)            
2012/1/30 11:59,0.8,13,1.1,12,1.3,11
2012/1/30 12:00,0.5,12,0.7,12,0.8,9
2012/1/30 12:01,0.4,11,0.5,12,0.8,8
2012/1/30 12:02,0.6,10,0.6,12,1.6,7
2012/1/30 12:03,0.7,8,0.7,12,1.9,6
2012/1/30 12:04,0.8,7,0.8,12,1.1,6
2012/1/30 12:05,0.8,7,0.8,12,1.5,5
2012/1/30 12:06,0.8,7,0.8,12,1.8,6
2012/1/30 12:07,0.8,7,0.8,12,2.1,7
2012/1/30 12:08,0.9,7,0.9,12,3,8
2012/1/30 12:09,1,7,1,7,2.6,6
2012/1/30 12:10,1.1,6,1.1,7,1.6,7
2012/1/30 12:11,1.2,6,1.2,6,1.9,9
2012/1/30 12:12,1.1,6,1.2,6,1.1,7
2012/1/30 12:13,1.1,6,1.1,6,2.4,7
2012/1/30 12:14,1.1,6,1.1,6,2,8
2012/1/30 12:15,1.1,6,1.1,6,0.9,9
2012/1/30 12:16,1,6,1.1,6,0.8,4
2012/1/30 12:17,1,6,1,6,1.6,2
2012/1/30 12:18,0.9,5,1,6,1.3,3
2012/1/30 12:19,0.8,4,0.9,6,0.8,2
2012/1/30 12:20,0.7,4,0.8,6,0.9,1
2012/1/30 12:21,0.6,3,0.7,6,0.3,13
2012/1/30 12:22,0.5,2,0.6,6,0.3,13
2012/1/30 12:23,0.5,2,0.5,6,0.8,3
2012/1/30 12:24,0.4,2,0.5,6,1.1,3
2012/1/30 12:25,0.5,2,0.5,6,1,4
2012/1/30 12:26,0.5,2,0.5,6,1.3,4
2012/1/30 12:27,0.5,3,0.5,6,1.9,4
2012/1/30 12:28,0.6,3,0.6,5,1.6,3
2012/1/30 12:29,0.6,3,0.6,4,1.5,2
2012/1/30 12:30,0.7,4,0.7,4,1.5,4
2012/1/30 12:31,0.7,4,0.7,3,1.1,9
2012/1/30 12:32,0.8,4,0.8,4,1.4,6
2012/1/30 12:33,0.8,4,0.8,4,1.4,5
2012/1/30 12:34,0.8,5,0.8,4,2,10
2012/1/30 12:35,0.9,5,0.9,5,2.9,9
2012/1/30 12:36,1,6,1,5,1.8,8
2012/1/30 12:37,1,6,1,5,1.9,6
2012/1/30 12:38,1,7,1,5,2.1,7
2012/1/30 12:39,1,7,1,5,2.1,3
2012/1/30 12:40,1.1,6,1.1,6,2.9,3
2012/1/30 12:41,1.2,6,1.2,6,1.6,1
2012/1/30 12:42,1.2,6,1.2,6,1.8,2
2012/1/30 12:43,1.2,5,1.2,6,1.6,1
2012/1/30 12:44,1.2,4,1.2,6,2.1,3
2012/1/30 12:45,1.1,4,1.2,6,1.3,2
2012/1/30 12:46,0.9,4,1.1,6,0.5,6
2012/1/30 12:47,0.9,3,0.9,6,1.5,14
2012/1/30 12:48,0.8,2,0.9,6,2,16
2012/1/30 12:49,0.9,2,0.9,6,3.1,9
2012/1/30 12:50,0.9,2,0.9,6,3.2,7
2012/1/30 12:51,1,2,1,6,5.1,12
2012/1/30 12:52,1.3,16,1.3,1,6,11
2012/1/30 12:53,1.4,15,1.4,16,3.5,15
2012/1/30 12:54,1.6,14,1.6,14,4.7,14
2012/1/30 12:55,1.8,14,1.8,14,4.9,15
2012/1/30 12:56,2,14,2,14,3,16
2012/1/30 12:57,2.1,14,2.1,14,3.1,14
2012/1/30 12:58,2.2,14,2.2,14,2.4,15
2012/1/30 12:59,2.1,15,2.2,14,2.6,15
2012/1/30 13:00,2.1,15,2.1,14,4.1,16
2012/1/30 13:01,2.1,15,2.1,14,3.8,15
2012/1/30 13:02,2,15,2.1,14,3.6,15
2012/1/30 13:03,1.9,15,2,14,2.4,15
2012/1/30 13:04,1.8,15,1.9,14,1.8,9
2012/1/30 13:05,1.6,15,1.7,14,2,2
2012/1/30 13:06,1.5,16,1.6,14,1.9,2
2012/1/30 13:07,1.5,16,1.5,14,3.1,16
2012/1/30 13:08,1.5,16,1.5,14,2,16
2012/1/30 13:09,1.5,16,1.6,15,3.2,15
2012/1/30 13:10,1.5,16,1.6,15,2.6,3
2012/1/30 13:11,1.4,1,1.4,15,2.5,4
2012/1/30 13:12,1.3,1,1.4,15,2.6,5
2012/1/30 13:13,1.4,2,1.4,15,3.8,5
2012/1/30 13:14,1.5,2,1.5,15,3.3,10
2012/1/30 13:15,1.6,3,1.6,15,4.2,10
2012/1/30 13:16,1.8,4,1.8,4,3.8,7
2012/1/30 13:17,1.6,6,1.8,4,1.9,10
2012/1/30 13:18,1.7,7,1.7,4,3.9,11
2012/1/30 13:19,1.7,8,1.7,4,3.7,11
2012/1/30 13:20,1.8,9,1.8,4,2.7,14
2012/1/30 13:21,1.8,10,1.8,4,3,1
2012/1/30 13:22,1.7,10,1.8,4,1.4,15
2012/1/30 13:23,1.5,11,1.6,4,3.2,14
2012/1/30 13:24,1.5,11,1.5,4,3.1,14
2012/1/30 13:25,1.3,11,1.4,4,2.2,7
2012/1/30 13:26,1.3,12,1.3,4,3.1,8
2012/1/30 13:27,1.6,12,1.6,9,6.5,11
2012/1/30 13:28,1.6,12,1.6,9,4.9,11
2012/1/30 13:29,1.5,12,1.6,9,3,13
2012/1/30 13:30,1.5,12,1.6,9,3.5,11
2012/1/30 13:31,1.5,11,1.5,10,3.2,13
2012/1/30 13:32,1.7,11,1.7,11,4.3,9
2012/1/30 13:33,1.9,11,1.9,11,5.5,10
2012/1/30 13:34,2.1,11,2.1,11,5.1,10
2012/1/30 13:35,2.1,11,2.1,11,2.6,14
2012/1/30 13:36,2.3,11,2.3,11,6,12
2012/1/30 13:37,2.3,12,2.3,11,5.5,12
2012/1/30 13:38,2.3,12,2.3,11,4.9,12
2012/1/30 13:39,2.6,12,2.6,12,6.7,12
2012/1/30 13:40,2.9,12,2.9,12,7.1,13
2012/1/30 13:41,3,12,3,12,5.7,12
2012/1/30 13:42,3,12,3,12,4.3,10
2012/1/30 13:43,3,12,3,12,6.1,13
2012/1/30 13:44,3.1,13,3.1,13,6.2,12
2012/1/30 13:45,3.2,12,3.2,13,4.3,13
2012/1/30 13:46,3.3,12,3.3,12,4.9,12
2012/1/30 13:47,3.2,12,3.3,12,5,11
2012/1/30 13:48,3.3,13,3.3,12,5.5,13
2012/1/30 13:49,3.2,12,3.3,12,4.2,13
2012/1/30 13:50,2.9,13,3.2,12,2.2,12
2012/1/30 13:51,2.8,13,2.8,12,5.8,13
2012/1/30 13:52,2.9,13,2.9,12,5.8,13
2012/1/30 13:53,2.6,13,2.8,12,4.2,15
2012/1/30 13:54,2.4,13,2.6,12,3.7,16
2012/1/30 13:55,2.5,14,2.5,12,6.5,16
2012/1/30 13:56,2.5,14,2.5,12,7.7,16
2012/1/30 13:57,2.6,14,2.6,12,6.3,15
2012/1/30 13:58,2.6,15,2.6,13,6.5,15
2012/1/30 13:59,2.7,15,2.7,12,6.3,1
2012/1/30 14:00,3,15,3,16,8.4,1
2012/1/30 14:01,3.4,16,3.4,15,8.2,1
2012/1/30 14:02,3.7,16,3.7,16,9.2,16
2012/1/30 14:03,4,16,4,16,6.3,16
2012/1/30 14:04,4.2,16,4.2,16,6.5,1
2012/1/30 14:05,4.5,16,4.5,16,7.7,1
2012/1/30 14:06,4.6,16,4.6,16,8.3,15
2012/1/30 14:07,4.7,16,4.7,16,8.1,16
2012/1/30 14:08,4.6,16,4.7,16,3.6,2
2012/1/30 14:09,4.4,16,4.6,16,3.1,1
2012/1/30 14:10,4.2,16,4.4,16,3.1,15
2012/1/30 14:11,4,16,4.1,16,6.4,16
2012/1/30 14:12,3.7,16,4,16,5.8,15
2012/1/30 14:13,3.4,16,3.7,16,3.3,16
2012/1/30 14:14,3.2,16,3.4,16,3,14
2012/1/30 14:15,2.7,16,3.2,16,2.2,15
2012/1/30 14:16,2.7,16,2.7,16,8.2,16
2012/1/30 14:17,2.5,16,2.6,16,6.1,16
2012/1/30 14:18,2.6,16,2.6,16,5.4,14
2012/1/30 14:19,2.6,15,2.7,16,4.7,16
2012/1/30 14:20,2.7,15,2.7,16,4.8,10
2012/1/30 14:21,2.5,15,2.7,16,2.5,12
2012/1/30 14:22,2.4,15,2.5,16,3.9,12
2012/1/30 14:23,2.4,14,2.4,16,3.1,14
2012/1/30 14:24,2.3,15,2.4,16,1.8,16
2012/1/30 14:25,2.3,15,2.3,16,1.5,6
2012/1/30 14:26,2,14,2.3,16,1.1,4
2012/1/30 14:27,1.7,14,1.9,16,4.1,1
2012/1/30 14:28,1.6,15,1.7,16,4.3,15
2012/1/30 14:29,1.4,15,1.5,15,3,14
2012/1/30 14:30,1.4,16,1.5,15,3.8,15
2012/1/30 14:31,1.5,16,1.5,15,3.2,15
2012/1/30 14:32,1.5,1,1.5,15,4.5,16
2012/1/30 14:33,1.7,1,1.7,14,5.5,16
2012/1/30 14:34,1.9,16,1.9,15,4.2,1
2012/1/30 14:35,2,16,2,15,4.2,1
2012/1/30 14:36,2.2,16,2.2,16,4.2,16
2012/1/30 14:37,2.1,16,2.2,16,3.2,2
2012/1/30 14:38,2,16,2.1,16,2.2,1
2012/1/30 14:39,2.1,16,2.1,16,3.5,16
2012/1/30 14:40,2.1,1,2.1,16,3.9,1
2012/1/30 14:41,2.1,16,2.1,16,3.3,16
2012/1/30 14:42,1.9,1,2.1,16,0.9,13
2012/1/30 14:43,1.6,1,1.9,16,2,16
2012/1/30 14:44,1.5,1,1.6,16,2.1,1
2012/1/30 14:45,1.4,1,1.5,16,0.6,1
2012/1/30 14:46,1.2,1,1.3,16,1.4,2
2012/1/30 14:47,1.1,1,1.2,16,1.3,2
2012/1/30 14:48,1,1,1.1,16,1.3,2
2012/1/30 14:49,0.9,1,1,16,0.6,13
2012/1/30 14:50,0.7,1,0.9,1,1.9,15
2012/1/30 14:51,0.8,16,0.8,16,3.9,14
2012/1/30 14:52,0.9,16,0.9,1,2.9,14
2012/1/30 14:53,0.9,16,0.9,1,2.9,10
2012/1/30 14:54,0.9,15,0.9,1,2.9,11
2012/1/30 14:55,1.1,14,1.1,1,4.8,7
2012/1/30 14:56,1.1,13,1.1,1,2.7,6
2012/1/30 14:57,1.2,13,1.2,13,2,3
2012/1/30 14:58,1.3,14,1.3,13,2.5,1
2012/1/30 14:59,1.3,14,1.3,13,0.9,16
2012/1/30 15:00,1.3,15,1.3,13,1.9,15
2012/1/30 15:01,1.2,16,1.3,13,2,16
2012/1/30 15:02,1.4,16,1.4,16,4.3,15
2012/1/30 15:03,1.6,16,1.6,16,5.5,16
2012/1/30 15:04,1.8,16,1.8,16,6.3,15
2012/1/30 15:05,1.9,16,1.9,16,6.9,15
2012/1/30 15:06,2.2,16,2.2,16,4.2,14
2012/1/30 15:07,2.1,16,2.2,16,3.6,14
2012/1/30 15:08,2.1,15,2.1,16,3.1,16
2012/1/30 15:09,2.3,15,2.3,15,3.7,1
2012/1/30 15:10,2.4,15,2.4,15,2.5,2
2012/1/30 15:11,2.3,16,2.4,15,0.8,2
2012/1/30 15:12,2,16,2.3,15,1.3,2
2012/1/30 15:13,2,16,2,15,4.3,16
2012/1/30 15:14,1.7,16,2,15,1.8,15
2012/1/30 15:15,1.6,16,1.7,15,3.5,16
2012/1/30 15:16,1.4,16,1.5,15,3.5,16
2012/1/30 15:17,1.4,16,1.4,15,2.4,7
2012/1/30 15:18,1.4,16,1.4,15,2.9,10
2012/1/30 15:19,1.3,1,1.4,15,4.2,1
2012/1/30 15:20,1.3,16,1.3,16,1.9,16
2012/1/30 15:21,1.4,16,1.4,16,5.4,16
2012/1/30 15:22,1.5,16,1.5,16,1.8,2
2012/1/30 15:23,1.4,16,1.4,16,4.8,16
2012/1/30 15:24,1.5,16,1.5,16,4.4,1
2012/1/30 15:25,1.4,16,1.5,16,1.8,2
2012/1/30 15:26,1.3,1,1.4,16,2.7,2
2012/1/30 15:27,1.5,1,1.5,16,4.7,16
2012/1/30 15:28,1.6,1,1.6,1,3.7,2
2012/1/30 15:29,1.6,1,1.6,1,6.5,16
2012/1/30 15:30,2,1,2,1,8.1,15
2012/1/30 15:31,2.4,1,2.4,1,9,16
2012/1/30 15:32,2.9,1,2.9,1,8.7,1
2012/1/30 15:33,3.1,1,3.1,1,7.8,16
2012/1/30 15:34,3.3,1,3.3,1,6.2,15
2012/1/30 15:35,3.6,16,3.6,16,5.7,15
2012/1/30 15:36,3.9,16,3.9,16,8.5,15
2012/1/30 15:37,4,16,4,16,7.4,15
2012/1/30 15:38,4.3,16,4.3,16,7,16
2012/1/30 15:39,4.4,16,4.4,16,8.3,15
2012/1/30 15:40,4.3,16,4.4,16,5.6,16
2012/1/30 15:41,4.1,16,4.3,16,5.5,1
2012/1/30 15:42,3.8,16,4,16,6,15
2012/1/30 15:43,3.9,16,3.9,16,7.5,1
2012/1/30 15:44,3.9,16,3.9,16,7.7,16
2012/1/30 15:45,4,16,4,16,7,15
2012/1/30 15:46,3.9,16,4,16,6.7,1
2012/1/30 15:47,3.9,16,4,16,7.9,15
2012/1/30 15:48,3.8,16,3.9,16,7.2,1
2012/1/30 15:49,3.8,16,3.9,16,7.7,1
2012/1/30 15:50,3.7,16,3.9,16,6.3,16
2012/1/30 15:51,3.6,16,3.7,16,4.9,15
2012/1/30 15:52,3.6,16,3.6,16,6,15
2012/1/30 15:53,3.4,16,3.6,16,5.6,16
2012/1/30 15:54,3.3,16,3.4,16,4.8,15
2012/1/30 15:55,3.1,15,3.3,16,3.6,13
2012/1/30 15:56,3,15,3.1,16,6.9,14
2012/1/30 15:57,2.9,15,3,16,4.7,15
2012/1/30 15:58,2.9,14,2.9,16,5,11
2012/1/30 15:59,2.9,14,2.9,16,7,11
2012/1/30 16:00,3.1,13,3.1,16,6.7,10
2012/1/30 16:01,3.3,12,3.3,16,6.8,10
2012/1/30 16:02,3.2,12,3.3,16,4.2,11
2012/1/30 16:03,3.2,12,3.2,16,5.4,8
2012/1/30 16:04,3.5,12,3.5,12,7.1,12
2012/1/30 16:05,3.7,12,3.7,12,7.6,13
2012/1/30 16:06,3.7,12,3.8,12,5.1,14
2012/1/30 16:07,3.5,12,3.6,12,4.4,13
2012/1/30 16:08,3.5,12,3.5,12,5.4,14
2012/1/30 16:09,3.3,12,3.5,12,3.7,14
2012/1/30 16:10,2.9,13,3.2,12,1.1,5
2012/1/30 16:11,2.6,13,2.9,12,2.2,8
2012/1/30 16:12,2.4,13,2.5,12,3.3,12
2012/1/30 16:13,2.4,13,2.4,12,2.6,16
2012/1/30 16:14,1.9,14,2.3,12,2.7,16
2012/1/30 16:15,1.6,14,1.9,12,2.9,1
2012/1/30 16:16,1.6,15,1.6,12,5.6,15
2012/1/30 16:17,1.8,15,1.8,12,7,16
2012/1/30 16:18,1.9,15,1.9,12,4.2,13
2012/1/30 16:19,2,15,2,12,4.4,15
2012/1/30 16:20,2.2,15,2.2,13,4.7,14
2012/1/30 16:21,2.2,15,2.2,13,2.9,16
2012/1/30 16:22,2.3,16,2.3,13,4.7,16
2012/1/30 16:23,2.5,16,2.5,16,4.5,15
2012/1/30 16:24,2.5,15,2.5,16,2.9,15
2012/1/30 16:25,2.4,15,2.5,16,1.5,2
2012/1/30 16:26,2.3,15,2.4,16,1.9,14
2012/1/30 17:35,4.5,16,6.9,16,7.5,15
2012/1/30 17:36,3,1,4.3,16,3.7,2
2012/1/30 17:37,2.6,16,2.8,16,3.2,15
2012/1/30 17:38,2.4,16,2.6,16,3.2,16
2012/1/30 17:39,2.2,15,2.4,16,2.1,16
2012/1/30 17:40,1.9,15,2.1,16,2.2,12
2012/1/30 17:41,1.8,15,1.9,16,1.6,14
2012/1/30 17:42,1.7,15,1.7,16,1.4,6
2012/1/30 17:43,1.5,16,1.6,16,0.6,4
2012/1/30 17:44,1.4,16,1.5,16,1.1,16
2012/1/30 17:45,1.1,16,1.4,16,1,1
2012/1/30 17:46,1,15,1.1,1,1.6,10
2012/1/30 17:47,0.9,14,1,16,2.5,11
2012/1/30 17:48,0.9,13,1,16,3.9,11
2012/1/30 17:49,0.9,12,0.9,15,1.8,10
2012/1/30 17:50,1,12,1,15,2.7,12
2012/1/30 17:51,1.1,12,1.1,15,2.1,11
2012/1/30 17:52,1,12,1.1,15,1.3,8
2012/1/30 17:53,1.1,12,1.1,16,2.5,14
2012/1/30 17:54,1.1,12,1.1,16,1.8,15
2012/1/30 17:55,1.2,12,1.2,12,1.4,1
2012/1/30 17:56,1.3,13,1.3,13,3.6,15
2012/1/30 17:57,1.4,13,1.4,13,3.8,16
2012/1/30 17:58,1.4,14,1.4,13,3.7,16
2012/1/30 17:59,1.6,15,1.6,15,3.5,14
2012/1/30 18:00,1.6,15,1.6,15,3.5,16
2012/1/30 18:01,1.6,15,1.6,15,2.6,2
2012/1/30 18:02,1.8,16,1.8,16,2.6,1
2012/1/30 18:03,1.8,16,1.8,16,3,16
2012/1/30 18:04,1.8,15,1.8,16,2,9
2012/1/30 18:05,1.8,15,1.8,16,2.2,11
2012/1/30 18:06,1.6,15,1.8,16,1.3,10
2012/1/30 18:07,1.5,14,1.6,16,0.8,9
2012/1/30 18:08,1.2,14,1.4,16,0.5,8
2012/1/30 18:09,1.1,12,1.2,16,2.5,10
2012/1/30 18:10,1,11,1.1,16,2.7,10
2012/1/30 18:11,1,10,1,16,2.7,9
2012/1/30 18:12,1.1,10,1.1,16,3.5,9
2012/1/30 18:13,1.2,9,1.2,16,2.9,9
2012/1/30 18:14,1.3,9,1.3,15,3.7,9
2012/1/30 18:15,1.4,9,1.4,15,4.4,10
